YAOGAN-30 AF (49029 NORAD) Tracking and Keplerian Element Data

This shows tracking and keplerian element data for the satellite.

Feedback or suggestion? Click here.




ElementValue
Catalog49029
NameYAOGAN-30 AF
Epoch Orbit138
Epoch Day209.23522081
Epoch Year2021
RAAN222.1393
Inclination34.9929
Eccentricity0.0008596
Argument of Perigee320.6169
Mean Anonmoly39.3947
Mean Motion14.9100831
Decay Rate7.3E-07
L11 49029U 21065D 21209.23522081 .00000073 00000-0 99150-5 0 9994
L22 49029 34.9929 222.1393 0008596 320.6169 39.3947 14.91008310 1383

Live tracking and technical data element details for YAOGAN-30 AF (NORAD 49029). YAOGAN-30 AF can be tracked NOW for your location showing map with azimuth and elevation plus other details from your city location.

Track the satellite on the map from your city or location and see movement details for azimuth, elevation, latitude, longitude, range, height, and movement on the map or in text.







IsCatalogInMostPopularTable: catalog: 49029, numindb: 1
Update: records affected: 1



GetName: 49029 YAOGAN-30 AF

Hit Count: updated at: Sat, 31 Jul 2021 15:54:20 GMT